Other Public Products
Issued by NWS Charleston, SC

Current Version | Previous Version | Graphics & Text | Print | Product List | Glossary On
Versions: 1 2 3 4 5 6 7 8 9 10 11 12 13 14 15 16 17 18 19 20 21 22 23 24 25 26 27 28 29 30 31 32 33 34 35 36 37 38 39 40 41 42 43 44 45 46 47 48 49 50
000 FPUS82 KCHS 192312 OPUCHS TEST...KCHS/KSAV Gateway Observations...TEST National Weather Service Charleston SC 600 PM EST SUN NOV 19 2017 NOTE: "fair" indicates few or no clouds below 12,000 feet with no significant weather and/or obstructions to visibility. SCZ050-WAZ558-NCZ071-TXZ119-213-PAZ071-DCZ001-FLZ074-172-MI076- NYZ176-178-MAZ016-IL014-TNZ027-NJZ106-GAZ044-MD014-200000- ...Gateway Observations for Charleston International... CITY SKY/WX TMP DP RH WIND PRES REMARKS Chas Airport CLEAR 53 38 56 NW6 29.93R Seattle LGT RAIN 48 35 60 SW8 29.74F Charlotte CLEAR 49 27 42 NW6 29.97R Dallas DFW PTCLDY 61 25 25 CALM 30.23F Dallas Love PTCLDY 60 25 26 CALM 30.24F Philladelphia MOCLDY 47 24 40 W20G26 29.76R Wash National CLOUDY 47 25 42 W9 29.86R Baltimore PTCLDY 43 26 51 W12G21 29.83R Miami PTCLDY 79 61 53 W3 29.91R Detroit CLOUDY 33 19 56 W16G26 29.93R WCI 23 Newark MOCLDY 47 25 42 NW12G21 29.67R Laguardia PTCLDY 47 27 45 NW16 29.66R J F K MOCLDY 46 24 42 NW24G32 29.68R Boston Logan CLEAR 41 26 55 W22G29 29.49R Ft. Lauderdale PTCLDY 77 62 59 SW5 29.90R Chicago O`Hare PTCLDY 33 16 49 W10 30.05S WCI 25 Chicago Midway PTCLDY 33 17 51 W10 30.06S WCI 25 Houston Bush MOCLDY 61 33 35 NE8 30.22R Houston Hobby CLOUDY 60 33 36 NE8 30.21S Nashville CLEAR 41 21 44 N8 30.18R Atlanta CLEAR 49 31 49 NW12 30.04R $$ GAZ044-118-TXZ119-213-NCZ071-DCZ001-MDZ014-506-PAZ021-071-NJZ106- NYZ176-178-MAZ106-OHZ011-021-055-MIZ076-KYZ091-ILZ014-INZ047- MNZ060-ONZ431-200000- ...Gateway Observations for Savannah International... CITY SKY/WX TMP DP RH WIND PRES REMARKS Savannah Arpt CLEAR 56 37 49 NW7 29.97R Atlanta CLEAR 49 31 49 NW12 30.04R Charlotte CLEAR 49 27 42 NW6 29.97R Dallas DFW PTCLDY 61 25 25 CALM 30.23F Houston Bush MOCLDY 61 33 35 NE8 30.22R Wash National CLOUDY 47 25 42 W9 29.86R Wash Dulles MOCLDY 43 27 53 NW10 29.86R Baltimore PTCLDY 43 26 51 W12G21 29.83R Philadelphia MOCLDY 47 24 40 W20G26 29.76R Newark MOCLDY 47 25 42 NW12G21 29.67R Laguardia PTCLDY 47 27 45 NW16 29.66R J F K MOCLDY 46 24 42 NW24G32 29.68R Boston CLEAR 41 26 55 W22G29 29.49R Pittsburg FLURRIES 35 28 75 W17 29.87R WCI 25 Akron FLURRIES 34 24 67 W13 29.91R WCI 25 Cleveland LGT SNOW 34 28 79 W15G25 29.94R WCI 24 Cincinnati PTCLDY 32 25 75 W6 30.08R WCI 26 Columbus CLOUDY 34 23 65 W21 30.04R WCI 22 Detroit CLOUDY 33 19 56 W16G26 29.93R WCI 23 Chicago O`Hare PTCLDY 33 16 49 W10 30.05S WCI 25 Minneapolis PTCLDY 39 24 55 S6 29.87F WCI 35 Indianapolis PTCLDY 31 22 69 W12 30.11R WCI 22 Toronto Canada PTCLDY 30 18 59 NW20G31 29.76R WCI 18 $$

USA.gov is the U.S. government's official web portal to all federal, state and local government web resources and services.